Location: Ab? ar R?sh Ba?r?
(24.1861°N, 32.8847°E)
Time: 20:22:29
(UTC+00:00)

H-2A R/B - Pass Details

Date: 30 May 2022
Orbit: 576 x 652 km, 98.5° (Epoch: 03 July)

Event Time Altitude Azimuth Distance (km) Brightness Sun altitude
Rises 18:35:41 0° 350° (N) 2,795 6.2 -24.7°
Reaches altitude 10° 18:38:21 10° 332° (NNW) 1,902 5.5 -25.2°
Maximum altitude 18:41:11 18° 288° (WNW) 1,448 4.6 -25.7°
Drops below altitude 10° 18:44:03 10° 244° (WSW) 1,920 4.8 -26.2°
Sets 18:46:45 0° 226° (SW) 2,833 5.5 -26.6°
